User: anonymous   Login
Location: downtown San Diego
(32.7310°N, 117.1990°W)
Time: 17:37:01
(UTC-07:00)
Language:

Cosmos 304 Rocket - Orbit

View from above orbital plane
View from above orbital plane
View from above satellite
View from above satellite

Ground track
Ground track

The orbit data is extracted from the following two-line orbital elements,

1  4139U 69091B   19112.54222876  .00000004  00000-0  68177-5 0  9990
2  4139  74.0322 251.8216 0005505 180.4812 179.6351 14.62911924627782
Epoch (UTC): 22 April 2019 13:00:48
Eccentricity: 0.0005505
inclination: 74.0322°
perigee height: 680 km
apogee height: 687 km
right ascension of ascending node: 251.8216°
argument of perigee: 180.4812°
revolutions per day: 14.62911924
mean anomaly at epoch: 179.6351°
orbit number at epoch: 62778

The dashed part of the orbit path shows where the satellite is in the earth's shadow,  

DLR